Погода в Жатеце

Чехия     50°19′23″N   13°32′36″E
темп.,
°C
ветер,
м/с
пор.,
м/с
влажн.,
%
обл.,
%
осадки,
мм/ч
давл.,
гПа
погр.,
м
17 апреля, сб
сб1723:00+2зюз229252 0.0 102442
02:00+1з229178 0.0 102320
05:00+1зсз2284100 0.0 102223
08:00+2сз3691100 0.4 1022420
11:00+3сз3491100 0.9 1022458
14:00+5с447999 1.0 1021826
17:00+4с448496 0.1 1021568
20:00+3ссз3492100 0.1 1021252
18 апреля, вс
вс1823:00+3зсз1190100 0.0 102133
02:00+4зсз118995 0.0 102025
05:00+4зсз1191100 0.0 102015
08:00+5зюз119099 0.1 1020131
11:00+5в0191100 0.6 1020184
14:00+9ссв2271100 0.8 1019974
17:00+10св2266100 0.3 1018942
20:00+7ю1180100 0.4 101910
19 апреля, пн
пн1923:00+7зсз1182100 0.0 101913
02:00+6ссз1190100 0.3 101911
05:00+6сз1191100 0.2 101819
08:00+6с2490100 0.3 1018283
11:00+10св3470100 0.2 1018972
14:00+11св6565100 0.6 10161346
17:00+9св3684100 0.7 1016614
20:00+8всв2490100 1.5 1016159
20 апреля, вт
вт2023:00+6с229184 0.2 101724
02:00+4с119266 0.2 101611
05:00+4сз229175 0.0 101637
08:00+6ссз12815 0.0 1016168
11:00+11ссв136044 0.1 10161114
14:00+12с336068 1.1 10151214
17:00+13с245565 1.5 10131469
20:00+9с22705 1.8 101412
21 апреля, ср
ср2123:00+5з22795 0.0 101612
02:00+4зюз22845 0.0 101617
05:00+4зюз228367 0.0 101621
08:00+8з247443 0.0 1017154
11:00+12сз555292 0.2 10171960
14:00+13ссз564595 0.2 10172155
17:00+13ссз664543 0.0 10171895
20:00+8ссз3367100 0.0 101839